Regional Weather Roundup
Issued by NWS

Home | Current Version | Previous Version | Text Only | Print | Product List | Glossary On
Versions: 1 2 3 4 5 6 7 8 9 10 11 12 13 14 15 16 17 18 19 20 21 22 23 24 25 26 27 28 29 30 31 32 33 34 35 36 37 38 39 40 41 42 43 44 45 46 47 48 49 50
000
ASUS43 KLOT 282209
RWRIL

ILLINOIS REGIONAL WEATHER ROUNDUP
NATIONAL WEATHER SERVICE CHICAGO/ROMEOVILLE IL
500 PM CDT SUN AUG 28 2016

NOTE: "FAIR" INDICATES FEW OR NO CLOUDS BELOW 12,000 FEET WITH NO
SIGNIFICANT WEATHER AND/OR OBSTRUCTIONS TO VISIBILITY.

* THESE STATIONS ARE NOT UNDER NWS QUALITY CONTROL. THEY ALSO MAY NOT
  REPORT WEATHER SUCH AS PRECIPITATION OR FOG.

ILZ001-002-007-009-015-016-024-282300-
NORTHWEST ILLINOIS

CITY           SKY/WX    TMP DP  RH WIND       PRES   REMARKS
MOLINE         CLOUDY    78  70  76 SE16G23   30.11S THUNDER HX  80
STERLING*      TSTM      75  72  90 VRB5G18   30.16R VSB 1
SAVANNA*       MOSUNNY   85  72  64 E6        30.12F HX  91
$$

ILZ003-004-008-010-011-017-018-282300-
NORTH CENTRAL ILLINOIS

CITY           SKY/WX    TMP DP  RH WIND       PRES   REMARKS
ROCKFORD       MOSUNNY   86  67  52 SE5       30.16F HX  89
FREEPORT*      MOSUNNY   82  69  64 E7        30.17F HX  85
ROCHELLE*      MOSUNNY   77  70  79 S5        30.16F
DE KALB*       MOSUNNY   76  71  84 S7        30.18S
$$

ILZ005-006-012>014-019>023-282300-
NORTHEAST ILLINOIS

CITY           SKY/WX    TMP DP  RH WIND       PRES   REMARKS
CHICAGO-OHARE  CLOUDY    79  68  69 E9        30.17S HX  81
CHICAGO-MIDWAY CLOUDY    80  68  66 E8        30.16F HX  83
AURORA         CLOUDY    80  71  74 SE3       30.17F HX  84
LANSING*       CLOUDY    74  73  95 CALM      30.17R
JOLIET*        PTSUNNY   76  73  92 CALM      30.17R
WAUKEGAN       CLOUDY    75  69  81 VRB5      30.18F
DUPAGE AIRPORT MOSUNNY   80  69  69 E5        30.16F HX  83
KANKAKEE*      CLOUDY    75  73  94 CALM      30.15F
WHEELING       CLOUDY    77  69  76 NE8       30.18F
MORRIS*        CLOUDY    73  70  92 CALM      30.16S
ROMEOVILLE*    PTSUNNY   77  75  93 CALM      30.17S
$$

LMZ740>746-282300-
SOUTHERN LAKE MICHIGAN

STATION/POSITION SKY/WX   TEMP    WIND        PRES    VSBY  WAVE
                          AIR SEA DIR/SP/G                  HT/PER
                          (F)     (DEG/KT/KT) (MB)    (MI)  (FT/S)
SOUTHERN BUOY              72 76   40/  8/  8 1021.7F         1
WILMETTE HARBOR            73 72   70/  6/  8   N/A           1/ 3
HARRISON CRIB              75      30/  5/  6   N/A
BURNHAM HARBOR             75      20/  6/  8   N/A
CALUMET HARBOR             74      20/  6/  8 1021.4F
BURNS HARBOR               75      40/  9/ 10 1022.0F
MICHIGAN CITY              74      20/  9/ 10   N/A
MICHIGAN CITY 6N           75 77   40/ 10/ 12   N/A           1/ 3
ST. JOSEPH                 75 76   10/ 10/ 14 1021.2F         2/ 2
$$

ILZ025>027-034>036-040-047-049-050-058-095>099-282300-
WEST-CENTRAL ILLINOIS

CITY           SKY/WX    TMP DP  RH WIND       PRES   REMARKS
QUINCY         CLOUDY    84  74  71 SW5       30.11F HX  91
GALESBURG*     CLOUDY    80  70  71 NE7       30.14R HX  83
MACOMB*        CLOUDY    85  75  70 SE6       30.14S HX  93
JACKSONVILLE*  CLOUDY    84  76  75 N5        30.11S HX  93
PITTSFIELD*    CLOUDY    85  76  76 NE3       30.11F HX  94
$$

ILZ028>032-037-038-041>044-048-051>054-059>061-282300-
CENTRAL ILLINOIS

CITY           SKY/WX    TMP DP  RH WIND       PRES   REMARKS
PONTIAC        LGT RAIN  71  70  96 CALM      30.17F
BLOOMINGTON    LGT RAIN  74  70  87 N15       30.19R
DECATUR        SUNNY     90  69  50 S5        30.12F HX  94
PEORIA         PTSUNNY   76  71  85 E16       30.16R
LACON*         CLOUDY    71  69  92 E9        30.15F THUNDER
LINCOLN*       SUNNY     89  74  61 CALM      30.13R HX  97
SPRINGFIELD    MOSUNNY   88  74  63 N6        30.11F HX  96
TAYLORVILLE    PTSUNNY   86  73  63 CALM      30.10F HX  93
$$

ILZ033-039-045-046-055>057-062-063-282300-
EAST-CENTRAL ILLINOIS

CITY           SKY/WX    TMP DP  RH WIND       PRES   REMARKS
CHAMPAIGN      LGT RAIN  87  73  62 E5        30.14S HX  94
RANTOUL*       MOSUNNY   88  73  59 NE3       30.14S HX  95
MATTOON        SUNNY     89  69  51 E3        30.12S HX  93
PARIS*         SUNNY     89  71  56 CALM      30.13S HX  95
$$

ILZ079-100>102-282300-
SOUTHWEST ILLINOIS

CITY           SKY/WX    TMP DP  RH WIND       PRES   REMARKS
ALTON          MOSUNNY   88  70  55 SE6       30.09F HX  92
BELLEVILLE     SUNNY     92  71  50 S7        30.07F HX  99
CAHOKIA*       MOSUNNY   92  70  48 SE3       30.07F HX  97
SPARTA*        SUNNY     89  74  61 E5        30.09F HX  98
$$

ILZ064>066-069>071-074>076-080>082-084>086-088>090-092>094-282300-
SOUTH-CENTRAL ILLINOIS

CITY           SKY/WX    TMP DP  RH WIND       PRES   REMARKS
CARBONDALE     SUNNY     90  73  57 E5        30.07F HX  98
CAIRO*         MOSUNNY   91  76  62 E5        30.05F HX 102
EFFINGHAM*     SUNNY     90  74  59 NE5       30.12S HX  98
MARION         MOSUNNY   90  77  66 E9        30.09F HX 102
MT. VERNON     PTSUNNY   91  73  55 E3        30.09S HX 100
CENTRALIA*     MOSUNNY   91  76  60 E6        30.09S HX 103
SALEM*         MOSUNNY   90  74  60 CALM      30.10S HX  99
METROPOLIS*    SUNNY     93  74  55 S5        30.07F HX 103
$$

ILZ067-068-072-073-078-083-087-091-282300-
SOUTHEAST ILLINOIS

CITY           SKY/WX    TMP DP  RH WIND       PRES   REMARKS
LAWRENCEVILLE  MOSUNNY   92  74  55 NE5       30.10S HX 101
FLORA*         PTSUNNY   87  74  66 E5        30.10S HX  95
FAIRFIELD*     MOSUNNY   88  76  67 CALM      30.09S HX  99
HARRISBURG*    SUNNY     91  74  57 E5        30.08F HX 100
ROBINSON*      PTSUNNY   89  76  65 NE3       30.11S HX 101
CARMI*         SUNNY     90  75  62 SE5       30.09S HX 100
$$

ABBREVIATIONS USED IN REMARKS
   TC - TEMPERATURE IN CELSIUS
  WCI - WIND CHILL INDEX
   HX - HEAT INDEX
  VSB - VISIBILITY
$$





USA.gov is the U.S. government's official web portal to all federal, state and local government web resources and services.